Regional Weather Roundup
Issued by NWS Boston, MA

Current Version | Previous Version | Text Only | Print | Product List | Glossary Off
Versions: 1 2 3 4 5 6 7 8 9 10 11 12 13 14 15 16 17 18 19 20 21 22 23 24 25 26 27 28 29 30 31 32 33 34 35 36 37 38 39 40 41 42 43 44 45 46 47 48 49 50

000
ASUS41 KBOX 020910
RWRBOX

REGIONAL WEATHER ROUNDUP
NATIONAL WEATHER SERVICE TAUNTON MA
500 AM EDT THU JUL 02 2015

NOTE:  "FAIR" INDICATES FEW OR NO CLOUDS BELOW 12,000 FEET WITH NO
SIGNIFICANT WEATHER AND/OR OBSTRUCTIONS TO VISIBILITY.  THE FOLLOWING
OBSERVATION LOCATIONS DO NOT REPORT PRESENT WEATHER...PROVINCETOWN...
SMITHFIELD...BLOCK ISLAND...KEENE...AND OXFORD.

MAZALL-021000-
EASTERN MASSACHUSETTS

CITY           SKY/WX    TMP DP  RH WIND       PRES   REMARKS
BOSTON         PTCLDY    65  58  78 W10       29.83R
BEVERLY        CLEAR     60  56  86 W7        29.82R
LAWRENCE       CLEAR     61  57  87 SW6       29.83S
BEDFORD        CLEAR     60  56  86 W5        29.82R
BLUE HILL        N/A     61  56  83 W18       29.83F
NORWOOD        CLEAR     63  57  81 W8        29.83F
MARSHFIELD     NOT AVBL
PLYMOUTH       CLEAR     63  58  83 W5        29.85S
TAUNTON        CLEAR     58  55  90 S5        29.85R
NEW BEDFORD    CLEAR     60  57  89 CALM      29.84R
$$

MAZALL-021000-
CAPE COD AND THE ISLANDS

CITY           SKY/WX    TMP DP  RH WIND       PRES   REMARKS
FALMOUTH       CLEAR     63  59  88 NW3       29.85F
HYANNIS        CLEAR     63  59  87 CALM      29.84S
CHATHAM        PTCLDY    63  61  93 CALM      29.86R
PROVINCETOWN   CLEAR     61   7  11 W12       29.84S
NANTUCKET      FOG       62  59  90 SW5       29.87R VSB 1
MARTHAS VNYRD  PTCLDY    60  58  92 SW3       29.86R
$$

MAZALL-021000-
CENTRAL AND WESTERN MASSACHUSETTS

CITY           SKY/WX    TMP DP  RH WIND       PRES   REMARKS
WORCESTER      CLEAR     61  55  81 W12       29.85F
FITCHBURG      CLEAR     62  56  80 CALM      29.84S
ORANGE         PTCLDY    54  53  97 CALM      29.85R
SPRINGFIELD    CLEAR     58  55  89 NE2       29.84S
WESTFIELD      CLEAR     65  56  72 NW5       29.85S
NORTH ADAMS    CLOUDY    62  56  80 W8        29.87R
PITTSFIELD     CLOUDY    59  56  89 SW5       29.88R
$$

RIZALL-021000-
RHODE ISLAND

CITY           SKY/WX    TMP DP  RH WIND       PRES   REMARKS
PROVIDENCE     CLEAR     64  57  78 CALM      29.85R
NEWPORT        CLEAR     62  59  90 CALM      29.85S
BLOCK ISLAND   CLEAR     63  59  88 S8        29.86S
SMITHFIELD     CLEAR     59  52  77 SW3       29.85R
WESTERLY       CLEAR     61  59  93 CALM      29.86S
$$

CTZALL-021000-
CONNECTICUT

CITY           SKY/WX    TMP DP  RH WIND       PRES   REMARKS
BRADLEY INTL   PTCLDY    62  58  86 CALM      29.85R
HARTFORD       CLEAR     62  60  93 MISG      29.85S
BRIDGEPORT     CLEAR     66  60  81 W3        29.86S
DANBURY        CLEAR     58  54  86 SW5       29.89R
GROTON         CLEAR     61  59  93 CALM      29.85S
NEW HAVEN      FAIR      63  59  87 CALM      29.86R
CHESTER        NOT AVBL
MERIDEN        CLEAR     60  57  89 CALM      29.86R
WILLIMANTIC    CLEAR     60  57  89 CALM      29.86R
OXFORD         CLEAR     59  52  77 N5        29.89R
$$

MEZ002-015-021-024-NHZ003-005-008-011-012-014-VTZ005-008-021000-
NORTHERN NEW ENGLAND

CITY           SKY/WX    TMP DP  RH WIND       PRES   REMARKS
PORTLAND ME    PTCLDY    62  58  86 SW7       29.76S
BANGOR ME      FOG       59  59 100 S5        29.72S VSB 1/8
CONCORD NH     CLEAR     58  55  90 S3        29.80S
MANCHESTER NH  PTCLDY    60  56  86 CALM      29.80S
NASHUA NH      CLEAR     59  58  96 CALM      29.82S
PORTSMOUTH NH  PTCLDY    61  58  90 SW6       29.78S
JAFFREY NH     CLEAR     55  54  96 S6        29.85S
KEENE NH       CLEAR     57  52  82 S5        29.84S
BURLINGTON VT  CLEAR     60  50  69 W8        29.84R
MT. WASHINGTON NOT AVBL
$$

NYZ052-076-021000-
EASTERN NEW YORK

CITY           SKY/WX    TMP DP  RH WIND       PRES   REMARKS
ALBANY         PTCLDY    62  55  77 SW5       29.88R
NEW YORK CITY  CLEAR     71  59  65 NW6       29.86S
$$

ANZALL-021000-
MARINE OBSERVATIONS

STATION/POSITION TIME  TEMP    WIND        PRES    VSBY  WAVE
                       AIR SEA DIR/SP/G                  HT/PER
                 (UTC) (F)     (DEG/KT/KT) (MB)    (MI)  (FT/S)
BOSTON BUOY      0850   63 58  250/ 10/ 12 1010.1R         2/ 8
BUZZARDS BAY     0800          270/  5/  6 1011.6R
NANTUCKET SOUND  0850   68 63  290/  6/  8 1010.8R         1/ 3
MASS BAY-STELLWA 0804   62 58  250/ 10/ 10 1008.9R  1 7/8  2/ 8
ISLE OF SHOALS   0900   62     250/ 14/ 15 1008.4R
S OF BLOCK IS    0808      63                N/A           7/ 8
$$

......................KEY.........................
  SKY/WX - SKY CONDITION/PRESENT WEATHER
  TMP    - TEMPERATURE IN FAHRENHEIT
  DWPT   - DEWPOINT IN FAHRENHEIT
  RH     - RELATIVE HUMIDITY IN PERCENT
  WIND   - DIRECTION AND SPEED IN MPH
  PRES   - MEAN SEA LEVEL PRESSURE IN INCHES OF HG
  WCI    - WIND CHILL INDEX
  VSB    - VISIBILITY IN MILES
  HX     - HEAT INDEX
  TC     - TEMPERATURE IN CELSIUS
  VRB    - VARIABLE WIND DIRECTION
  N/A    - NOT AVAILABLE



USA.gov is the U.S. government's official web portal to all federal, state and local government web resources and services.